Un día en 60 segundosParameter Max Max Time Min Min Time Average Wind Direction 286 1:18 217 2:11 248 Wind Speed 13 0:00 0 0:00 1 Wind Gust 13 0:00 0 2:30 4 In Humidity 60 6:14 57 0:00 58 Humidity 91 6:15 80 0:00 85 In Temp 22.1 0:00 21.4 5:52 21.7 Out Temp 16.5 0:00 15.3 5:42 15.9 Raw Barometer 1015.75 0:53 1013.72 6:10 1014.84 Total Rain 248.00 0:00 248.00 0:00 248.00
3/5/26
Time Wind Dir Wind Spd Wind Gust Hum In Humidity Temp In Temp Raw Barom Tot Rain
° km/hr km/hr % % °C °C mb mm
0:00 276 0 13 57 80 22.1 16.5 1015.51 248.00
0:20 254 5 6 57 81 22.1 16.2 1015.54 248.00
0:40 264 2 6 57 82 22.0 15.9 1015.58 248.00
1:00 251 2 6 57 83 21.9 15.8 1015.65 248.00
1:20 261 3 5 57 84 21.8 15.8 1015.61 248.00
1:40 255 0 6 57 84 21.8 15.7 1015.54 248.00
2:00 229 0 6 57 84 21.8 15.8 1015.44 248.00
2:20 225 0 5 57 84 21.7 15.9 1015.38 248.00
2:40 223 0 3 57 85 21.7 15.9 1015.27 248.00
3:00 223 0 3 58 85 21.7 15.9 1014.97 248.00
3:20 223 0 0 58 86 21.7 16.1 1014.77 248.00
3:40 223 0 0 58 86 21.7 16.1 1014.40 248.00
4:00 223 0 0 58 87 21.6 16.0 1014.16 248.00
4:20 223 0 0 58 87 21.6 16.0 1014.12 248.00
4:40 227 0 2 59 88 21.6 16.2 1014.29 248.00
5:00 244 0 2 59 89 21.5 16.1 1014.09 248.00
5:20 244 0 0 59 89 21.5 15.9 1014.06 248.00
5:40 244 0 0 59 89 21.4 15.4 1014.06 248.00
6:00 244 0 0 59 90 21.4 15.4 1013.85 248.00
6:20 244 0 0 60 91 21.4 15.6 1013.82 248.00